Weather History for Pasco, WA

Change the Weather History Date:

Sunday, September 22, 2013

  Actual Average Record
Temperature  
Mean Temperature 63 °F 61 °F  
Max Temperature 71 °F 78 °F 94 °F (1999)
Min Temperature 55 °F 45 °F 34 °F (1955)
Degree Days  
Heating Degree Days 2 5  
Month to date heating degree days 18 49  
Since 1 July heating degree days 18 61  
Cooling Degree Days 0 1  
Month to date cooling degree days 133 47  
Year to date cooling degree days 995 704  
Growing Degree Days 12 (Base 50)    
Moisture  
Dew Point 49 °F    
Average Humidity 62    
Maximum Humidity 86    
Minimum Humidity 37    
Precipitation  
Precipitation 0.05 in 0.02 in 0.12 in (1973)
Month to date precipitation 0.76 0.26  
Year to date precipitation 4.08 5.74  
Snow  
Snow 0.00 in - - ()
Snow Depth 0.00 in    
Sea Level Pressure  
Sea Level Pressure 29.71 in    
Wind  
Wind Speed 13 mph (SW)    
Max Wind Speed 23 mph    
Max Gust Speed 30 mph    
Visibility 10 miles    
Events Rain    
T = Trace of Precipitation, MM = Missing Value Source: NWS Daily Summary

Daily Weather History Graph

Daily Weather History Graph

Search for Another Location

Airport:

Trip Planner

Search our weather history database for the weather conditions in past years. The results will help you decide how hot, cold, wet, or windy it might be!

Date:

Astronomy

Sep. 22, 2013 Rise Set
Actual Time 6:43 AM PDT 6:53 PM PDT
Civil Twilight 6:13 AM PDT 7:23 PM PDT
Nautical Twilight 5:38 AM PDT 7:58 PM PDT
Astronomical Twilight 5:02 AM PDT 8:34 PM PDT
Moon 8:32 PM PDT (9/22) 10:22 AM PDT (9/22)
Length of Visible Light 13h 09m
Length of Day
12h 09m
Waning Gibbous, 88% of the Moon is Illuminated
Sep 22
Waning Gibbous
Sep 26
Last Quarter
Oct 4
New
Oct 11
First Quarter
Oct 18
Full

Hourly Weather History & Observations

Time (PDT) Temp. Dew Point Humidity Pressure Visibility Wind Dir Wind Speed Gust Speed Precip Events Conditions
12:53 AM 61.0 °F 48.0 °F 62% 29.65 in 10.0 mi SW 12.7 mph - N/A   Overcast
1:53 AM 61.0 °F 48.0 °F 62% 29.67 in 10.0 mi SW 13.8 mph - N/A   Overcast
2:53 AM 60.1 °F 48.0 °F 64% 29.69 in 10.0 mi SW 11.5 mph - N/A   Overcast
3:53 AM 57.9 °F 46.9 °F 67% 29.70 in 10.0 mi SW 11.5 mph - N/A   Scattered Clouds
4:53 AM 57.0 °F 48.9 °F 74% 29.71 in 10.0 mi SW 11.5 mph - N/A   Clear
5:53 AM 57.0 °F 48.9 °F 74% 29.71 in 10.0 mi SW 15.0 mph - N/A   Clear
6:53 AM 55.9 °F 48.0 °F 75% 29.71 in 10.0 mi SW 15.0 mph - N/A   Clear
7:53 AM 59.0 °F 48.0 °F 67% 29.73 in 10.0 mi SW 11.5 mph - N/A   Clear
8:53 AM 61.0 °F 48.0 °F 62% 29.73 in 10.0 mi SW 16.1 mph 25.3 mph N/A   Clear
9:53 AM 62.1 °F 46.9 °F 58% 29.75 in 10.0 mi SW 19.6 mph 28.8 mph N/A   Partly Cloudy
10:53 AM 64.9 °F 45.0 °F 48% 29.74 in 10.0 mi SW 21.9 mph 25.3 mph N/A   Partly Cloudy
11:53 AM 66.0 °F 45.0 °F 47% 29.72 in 10.0 mi WSW 13.8 mph - N/A   Scattered Clouds
12:53 PM 69.1 °F 43.0 °F 39% 29.70 in 10.0 mi SW 18.4 mph 25.3 mph N/A   Partly Cloudy
1:53 PM 70.0 °F 44.1 °F 39% 29.68 in 10.0 mi South 12.7 mph - N/A   Overcast
2:53 PM 70.0 °F 44.1 °F 39% 29.66 in 10.0 mi SW 9.2 mph 17.3 mph N/A   Overcast
3:53 PM 64.9 °F 48.9 °F 56% 29.68 in 10.0 mi West 6.9 mph - 0.00 in Rain Light Rain
4:53 PM 60.1 °F 53.1 °F 78% 29.70 in 10.0 mi SW 9.2 mph - 0.02 in Rain Light Rain
5:53 PM 61.0 °F 53.1 °F 75% 29.69 in 10.0 mi South 8.1 mph - 0.01 in   Overcast
6:53 PM 61.0 °F 51.1 °F 70% 29.70 in 10.0 mi South 6.9 mph - 0.00 in Rain Light Rain
7:53 PM 57.9 °F 54.0 °F 87% 29.72 in 10.0 mi Calm Calm - 0.01 in Rain Light Rain
8:53 PM 57.9 °F 55.0 °F 90% 29.72 in 10.0 mi SSW 9.2 mph - 0.01 in   Overcast
9:53 PM 57.0 °F 53.1 °F 87% 29.73 in 10.0 mi SSW 10.4 mph - N/A   Partly Cloudy
10:53 PM 57.9 °F 52.0 °F 81% 29.75 in 10.0 mi SW 12.7 mph - N/A   Partly Cloudy
11:53 PM 57.9 °F 48.9 °F 72% 29.77 in 10.0 mi SW 16.1 mph - N/A   Clear